Location: Black Forest
(43.4794°N, 75.0081°W)
Time: 23:14:12
(UTC-04:00)

ISS - Visible Passes

Search period start: 29 September 2016 00:00
Search period end: 09 October 2016 00:00
Orbit: 400 x 409 km, 51.6° (Epoch: 30 September)

Date Brightness Start Highest point End Pass type
(mag) Time Alt. Az. Time Alt. Az. Time Alt. Az.
29 Sep -2.7 19:50:41 10° SSW 19:53:42 35° SE 19:54:44 28° E visible
29 Sep 0.0 21:27:07 10° W 21:27:25 12° W 21:27:25 12° W visible
30 Sep -2.8 20:34:43 10° WSW 20:37:47 56° NW 20:37:47 56° NW visible
01 Oct -3.4 19:42:30 10° SW 19:45:44 84° SSE 19:47:59 19° ENE visible
01 Oct -0.2 21:19:46 10° WNW 21:20:40 15° WNW 21:20:40 15° WNW visible
02 Oct -1.9 20:27:12 10° W 20:30:10 32° NNW 20:30:43 30° N visible
03 Oct -2.5 19:34:43 10° WSW 19:37:52 47° NNW 19:40:41 12° NE visible
03 Oct -0.2 21:12:24 10° WNW 21:13:21 15° NW 21:13:21 15° NW visible
04 Oct -1.4 20:19:48 10° WNW 20:22:29 23° NNW 20:23:14 21° N visible
05 Oct -1.7 19:27:11 10° W 19:30:05 29° NNW 19:32:59 10° NE visible
05 Oct -0.3 21:04:50 10° NW 21:05:42 14° NW 21:05:42 14° NW visible
06 Oct -1.3 20:12:20 10° NW 20:14:48 19° N 20:15:28 18° NNE visible
07 Oct -1.3 19:19:43 10° WNW 19:22:19 22° N 19:24:56 10° NE visible
07 Oct -0.4 20:56:59 10° NW 20:57:51 15° NNW 20:57:51 15° NNW visible
08 Oct -1.3 20:04:38 10° NW 20:07:05 19° N 20:07:33 19° NNE visible
